QPF
0.05 0.06 0.07 0.07 0.07 0.06 0.07 0.09 0.10 0.09 0.08 0.08 0.07 0.07 0.06 0.05 0.05 0.04 0.05 0.08 0.09 0.09 0.07 0.07 0.06 0.04 0.05 0.05 0.04 0.03 0.03 0.03 0.03 0.03 0.04 0.04 0.04 0.04
0.04 0.05 0.07 0.08 0.08 0.08 0.08 0.09 0.11 0.11 0.10 0.08 0.07 0.06 0.06 0.05 0.06 0.05 0.03 0.05 0.06 0.06 0.06 0.07 0.06 0.05 0.05 0.05 0.04 0.03 0.03 0.04 0.05 0.05 0.05 0.05 0.05 0.04
0.04 0.04 0.05 0.06 0.08 0.08 0.09 0.09 0.10 0.11 0.10 0.09 0.08 0.08 0.08 0.07 0.07 0.05 0.03 0.02 0.03 0.06 0.07 0.07 0.06 0.06 0.05 0.05 0.05 0.04 0.05 0.06 0.07 0.08 0.08 0.09 0.07 0.05
0.05 0.06 0.05 0.05 0.06 0.07 0.09 0.10 0.10 0.12 0.10 0.08 0.08 0.08 0.07 0.08 0.07 0.05 0.03 0.02 0.02 0.05 0.06 0.07 0.07 0.07 0.06 0.06 0.06 0.05 0.06 0.09 0.12 0.12 0.12 0.11 0.08 0.06
0.04 0.04 0.03 0.04 0.05 0.05 0.06 0.08 0.09 0.09 0.10 0.09 0.06 0.06 0.07 0.09 0.07 0.05 0.04 0.04 0.03 0.04 0.04 0.05 0.06 0.07 0.07 0.07 0.06 0.05 0.04 0.05 0.06 0.07 0.08 0.08 0.06 0.04
0.03 0.03 0.03 0.03 0.04 0.04 0.04 0.05 0.06 0.07 0.08 0.08 0.05 0.07 0.08 0.09 0.06 0.08 0.06 0.05 0.03 0.03 0.04 0.03 0.03 0.03 0.03 0.04 0.04 0.04 0.03 0.03 0.03 0.04 0.04 0.04 0.03 0.02
0.02 0.03 0.02 0.02 0.02 0.02 0.02 0.04 0.05 0.06 0.07 0.08 0.07 0.07 0.07 0.07 0.06 0.07 0.07 0.06 0.05 0.04 0.03 0.03 0.02 0.02 0.02 0.03 0.04 0.04 0.04 0.03 0.02 0.02 0.02 0.01 0.01 0.01
0.02 0.02 0.01 0.01 0.01 0.01 0.01 0.02 0.03 0.04 0.05 0.06 0.06 0.05 0.07 0.06 0.05 0.05 0.06 0.06 0.06 0.05 0.04 0.03 0.02 0.02 0.02 0.02 0.02 0.03 0.04 0.03 0.03 0.03 0.02 0.02 0.01 0.01
0.02 0.02 0.02 0.01 0.02 0.02 0.02 0.01 0.01 0.02 0.03 0.04 0.05 0.05 0.04 0.04 0.05 0.06 0.06 0.06 0.06 0.05 0.04 0.04 0.03 0.02 0.01 0.01 0.01 0.01 0.01 0.02 0.02 0.02 0.02 0.01 0.00 0.00
0.02 0.02 0.02 0.02 0.02 0.03 0.03 0.02 0.02 0.02 0.02 0.04 0.05 0.06 0.05 0.05 0.06 0.07 0.06 0.05 0.05 0.04 0.04 0.04 0.03 0.02 0.01 0.01 0.01 0.01 0.01 0.01 0.01 0.01 0.01 0.00 0.00 0.00
0.02 0.02 0.02 0.03 0.02 0.01 0.03 0.03 0.02 0.02 0.02 0.02 0.03 0.06 0.07 0.05 0.05 0.05 0.06 0.06 0.06 0.04 0.03 0.03 0.02 0.01 0.01 0.01 0.01 0.01 0.01 0.01 0.00 0.00 0.00 0.00 0.00 0.00
0.02 0.02 0.02 0.02 0.01 0.02 0.04 0.05 0.04 0.03 0.03 0.03 0.03 0.04 0.05 0.06 0.05 0.05 0.05 0.05 0.04 0.03 0.02 0.02 0.02 0.02 0.02 0.01 0.01 0.01 0.01 0.00 0.00 0.00 0.00 0.00 0.00 0.00
0.04 0.04 0.02 0.01 0.01 0.01 0.03 0.06 0.05 0.04 0.04 0.04 0.05 0.05 0.05 0.06 0.04 0.03 0.03 0.04 0.03 0.02 0.02 0.02 0.02 0.02 0.02 0.02 0.01 0.01 0.01 0.01 0.01 0.00 0.00 0.00 0.00 0.00
0.03 0.03 0.01 0.00 0.01 0.01 0.02 0.03 0.02 0.02 0.04 0.05 0.06 0.05 0.05 0.04 0.03 0.02 0.02 0.03 0.03 0.02 0.02 0.02 0.03 0.03 0.03 0.03 0.03 0.02 0.01 0.01 0.01 0.01 0.01 0.01 0.00 0.00
0.02 0.01 0.01 0.00 0.00 0.00 0.01 0.01 0.01 0.02 0.04 0.05 0.05 0.04 0.04 0.03 0.02 0.02 0.02 0.03 0.03 0.02 0.01 0.02 0.03 0.03 0.03 0.03 0.02 0.02 0.02 0.01 0.01 0.01 0.01 0.01 0.01 0.01
0.02 0.01 0.01 0.01 0.01 0.01 0.01 0.01 0.01 0.02 0.03 0.03 0.03 0.03 0.04 0.04 0.03 0.03 0.02 0.02 0.03 0.04 0.03 0.02 0.03 0.03 0.03 0.03 0.02 0.02 0.02 0.02 0.01 0.01 0.01 0.01 0.01 0.01
0.01 0.01 0.01 0.02 0.02 0.02 0.02 0.02 0.02 0.02 0.02 0.02 0.02 0.03 0.03 0.03 0.04 0.03 0.02 0.02 0.02 0.02 0.02 0.02 0.02 0.03 0.03 0.03 0.02 0.02 0.02 0.01 0.01 0.01 0.01 0.01 0.01 0.01
0.01 0.01 0.01 0.02 0.03 0.03 0.04 0.04 0.03 0.02 0.02 0.02 0.03 0.02 0.03 0.03 0.02 0.02 0.03 0.02 0.02 0.02 0.02 0.02 0.02 0.03 0.03 0.02 0.01 0.01 0.02 0.02 0.01 0.01 0.01 0.01 0.01 0.01
0.01 0.02 0.02 0.02 0.02 0.03 0.03 0.03 0.03 0.03 0.03 0.02 0.02 0.02 0.03 0.03 0.03 0.02 0.02 0.02 0.02 0.01 0.01 0.01 0.02 0.02 0.02 0.02 0.01 0.01 0.01 0.01 0.01 0.01 0.01 0.01 0.01 0.01
0.01 0.02 0.03 0.03 0.03 0.03 0.02 0.02 0.02 0.03 0.03 0.03 0.03 0.03 0.03 0.02 0.02 0.02 0.01 0.01 0.01 0.01 0.01 0.01 0.02 0.01 0.01 0.01 0.01 0.00 0.00 0.01 0.01 0.01 0.01 0.01 0.01 0.01
0.01 0.02 0.03 0.03 0.03 0.03 0.02 0.02 0.02 0.02 0.02 0.02 0.03 0.03 0.03 0.02 0.01 0.01 0.01 0.01 0.00 0.01 0.01 0.01 0.01 0.01 0.00 0.01 0.01 0.01 0.01 0.01 0.01 0.01 0.01 0.01 0.01 0.01
0.02 0.03 0.02 0.01 0.02 0.03 0.03 0.03 0.02 0.01 0.01 0.01 0.02 0.03 0.02 0.02 0.01 0.01 0.01 0.01 0.01 0.00 0.00 0.00 0.00 0.00 0.00 0.01 0.01 0.01 0.01 0.00 0.00 0.00 0.00 0.00 0.00 0.00
0.02 0.02 0.01 0.01 0.02 0.02 0.03 0.03 0.02 0.01 0.01 0.01 0.01 0.02 0.02 0.02 0.01 0.01 0.01 0.01 0.00 0.00 0.00 0.00 0.00 0.00 0.00 0.00 0.01 0.00 0.00 0.00 0.00 0.00 0.00 0.00 0.00 0.00
MSLP
1013.94 1014.15 1014.25 1014.23 1014.12 1013.93 1013.68 1013.42 1013.15 1012.90 1012.69 1012.51 1012.37 1012.27 1012.22 1012.23 1012.30 1012.46 1012.71 1013.09 1013.58 1014.20 1014.92 1015.72 1016.56 1017.40 1018.22 1018.99 1019.69 1020.30 1020.85 1021.32 1021.75 1022.14 1022.51 1022.85 1023.18 1023.49
1013.90 1014.11 1014.22 1014.21 1014.12 1013.95 1013.74 1013.51 1013.28 1013.07 1012.88 1012.73 1012.60 1012.50 1012.44 1012.42 1012.45 1012.56 1012.77 1013.09 1013.53 1014.10 1014.78 1015.56 1016.39 1017.24 1018.08 1018.87 1019.59 1020.23 1020.78 1021.26 1021.68 1022.05 1022.38 1022.69 1022.98 1023.24
1013.82 1014.03 1014.13 1014.14 1014.07 1013.94 1013.76 1013.58 1013.39 1013.23 1013.10 1012.99 1012.91 1012.84 1012.81 1012.80 1012.84 1012.94 1013.12 1013.40 1013.80 1014.32 1014.95 1015.68 1016.47 1017.29 1018.10 1018.88 1019.59 1020.21 1020.76 1021.22 1021.61 1021.95 1022.24 1022.51 1022.76 1022.98
1013.73 1013.92 1014.02 1014.04 1013.99 1013.89 1013.76 1013.62 1013.49 1013.39 1013.31 1013.27 1013.25 1013.25 1013.28 1013.32 1013.40 1013.52 1013.71 1013.98 1014.34 1014.82 1015.39 1016.05 1016.77 1017.52 1018.27 1018.99 1019.65 1020.24 1020.74 1021.17 1021.53 1021.83 1022.08 1022.31 1022.52 1022.70
1013.65 1013.82 1013.92 1013.95 1013.92 1013.84 1013.75 1013.65 1013.58 1013.53 1013.52 1013.54 1013.60 1013.69 1013.79 1013.91 1014.06 1014.23 1014.45 1014.73 1015.08 1015.51 1016.02 1016.59 1017.22 1017.87 1018.52 1019.15 1019.73 1020.25 1020.69 1021.07 1021.38 1021.65 1021.87 1022.06 1022.24 1022.39
1013.62 1013.77 1013.86 1013.90 1013.88 1013.84 1013.77 1013.71 1013.67 1013.67 1013.71 1013.80 1013.93 1014.10 1014.29 1014.50 1014.73 1014.98 1015.25 1015.55 1015.89 1016.28 1016.72 1017.20 1017.71 1018.24 1018.77 1019.28 1019.75 1020.17 1020.54 1020.86 1021.13 1021.36 1021.56 1021.74 1021.89 1022.01
1013.66 1013.79 1013.88 1013.92 1013.92 1013.89 1013.85 1013.82 1013.81 1013.83 1013.91 1014.04 1014.23 1014.46 1014.74 1015.03 1015.35 1015.67 1015.99 1016.32 1016.66 1017.01 1017.37 1017.75 1018.13 1018.53 1018.91 1019.29 1019.64 1019.96 1020.25 1020.51 1020.74 1020.94 1021.13 1021.29 1021.43 1021.53
1013.77 1013.89 1013.97 1014.03 1014.05 1014.04 1014.02 1013.99 1013.99 1014.03 1014.12 1014.28 1014.50 1014.78 1015.11 1015.47 1015.85 1016.23 1016.60 1016.95 1017.27 1017.58 1017.86 1018.13 1018.39 1018.64 1018.89 1019.12 1019.35 1019.56 1019.77 1019.98 1020.17 1020.36 1020.53 1020.69 1020.82 1020.92
1013.93 1014.04 1014.14 1014.22 1014.26 1014.27 1014.26 1014.25 1014.24 1014.28 1014.36 1014.52 1014.74 1015.04 1015.40 1015.80 1016.22 1016.63 1017.02 1017.37 1017.67 1017.92 1018.13 1018.30 1018.43 1018.55 1018.65 1018.76 1018.87 1018.99 1019.12 1019.27 1019.43 1019.60 1019.78 1019.93 1020.06 1020.15
1014.11 1014.24 1014.37 1014.47 1014.55 1014.58 1014.58 1014.57 1014.56 1014.57 1014.64 1014.77 1014.98 1015.27 1015.62 1016.02 1016.44 1016.85 1017.23 1017.56 1017.82 1018.01 1018.14 1018.20 1018.23 1018.22 1018.21 1018.20 1018.21 1018.25 1018.32 1018.42 1018.55 1018.71 1018.87 1019.02 1019.14 1019.22
1014.30 1014.46 1014.62 1014.76 1014.87 1014.92 1014.94 1014.92 1014.90 1014.89 1014.93 1015.02 1015.20 1015.45 1015.77 1016.14 1016.53 1016.91 1017.25 1017.53 1017.73 1017.86 1017.90 1017.88 1017.81 1017.72 1017.61 1017.51 1017.45 1017.42 1017.43 1017.49 1017.59 1017.72 1017.86 1018.00 1018.10 1018.17
1014.48 1014.68 1014.87 1015.05 1015.18 1015.26 1015.28 1015.27 1015.23 1015.20 1015.20 1015.25 1015.38 1015.58 1015.85 1016.16 1016.49 1016.81 1017.09 1017.31 1017.44 1017.50 1017.48 1017.39 1017.25 1017.09 1016.92 1016.77 1016.65 1016.58 1016.55 1016.57 1016.63 1016.72 1016.82 1016.92 1017.00 1017.03
1014.65 1014.88 1015.10 1015.30 1015.45 1015.53 1015.56 1015.54 1015.49 1015.43 1015.40 1015.42 1015.50 1015.64 1015.84 1016.09 1016.34 1016.59 1016.79 1016.93 1017.00 1017.00 1016.92 1016.79 1016.62 1016.42 1016.23 1016.05 1015.90 1015.80 1015.73 1015.71 1015.73 1015.77 1015.82 1015.87 1015.89 1015.89
1014.83 1015.06 1015.29 1015.49 1015.64 1015.72 1015.74 1015.70 1015.63 1015.56 1015.50 1015.48 1015.52 1015.61 1015.75 1015.91 1016.09 1016.26 1016.38 1016.46 1016.46 1016.41 1016.30 1016.15 1015.96 1015.77 1015.58 1015.40 1015.25 1015.14 1015.05 1014.99 1014.95 1014.92 1014.91 1014.89 1014.85 1014.79
1015.00 1015.23 1015.44 1015.61 1015.73 1015.79 1015.78 1015.73 1015.64 1015.55 1015.47 1015.43 1015.42 1015.47 1015.55 1015.65 1015.76 1015.85 1015.90 1015.91 1015.87 1015.79 1015.66 1015.51 1015.35 1015.18 1015.02 1014.87 1014.73 1014.61 1014.50 1014.41 1014.31 1014.22 1014.12 1014.02 1013.91 1013.79
1015.19 1015.37 1015.54 1015.66 1015.73 1015.74 1015.70 1015.62 1015.51 1015.40 1015.31 1015.25 1015.23 1015.24 1015.28 1015.33 1015.37 1015.39 1015.39 1015.35 1015.27 1015.17 1015.05 1014.91 1014.78 1014.66 1014.54 1014.43 1014.32 1014.21 1014.09 1013.95 1013.80 1013.63 1013.45 1013.26 1013.08 1012.89
1015.36 1015.48 1015.58 1015.64 1015.64 1015.59 1015.50 1015.39 1015.26 1015.14 1015.05 1014.98 1014.95 1014.94 1014.95 1014.96 1014.96 1014.93 1014.88 1014.80 1014.70 1014.58 1014.47 1014.36 1014.27 1014.19 1014.12 1014.06 1013.97 1013.87 1013.73 1013.56 1013.35 1013.11 1012.85 1012.59 1012.33 1012.10
1015.49 1015.54 1015.57 1015.54 1015.47 1015.37 1015.23 1015.09 1014.95 1014.83 1014.74 1014.67 1014.64 1014.63 1014.62 1014.60 1014.56 1014.50 1014.41 1014.29 1014.17 1014.05 1013.94 1013.86 1013.80 1013.75 1013.72 1013.69 1013.62 1013.52 1013.37 1013.16 1012.90 1012.59 1012.27 1011.94 1011.63 1011.35
1015.55 1015.54 1015.49 1015.40 1015.26 1015.10 1014.93 1014.77 1014.62 1014.50 1014.42 1014.38 1014.35 1014.34 1014.32 1014.28 1014.22 1014.12 1013.99 1013.85 1013.70 1013.56 1013.45 1013.37 1013.33 1013.30 1013.29 1013.26 1013.21 1013.09 1012.92 1012.67 1012.37 1012.02 1011.64 1011.26 1010.92 1010.62
1015.53 1015.46 1015.35 1015.21 1015.03 1014.83 1014.64 1014.47 1014.32 1014.22 1014.15 1014.12 1014.11 1014.10 1014.08 1014.02 1013.93 1013.81 1013.65 1013.47 1013.29 1013.13 1013.00 1012.90 1012.85 1012.82 1012.79 1012.76 1012.68 1012.55 1012.35 1012.07 1011.73 1011.34 1010.93 1010.53 1010.17 1009.87
1015.41 1015.31 1015.17 1014.99 1014.79 1014.58 1014.38 1014.21 1014.08 1013.99 1013.95 1013.93 1013.93 1013.93 1013.90 1013.83 1013.71 1013.56 1013.36 1013.15 1012.93 1012.73 1012.56 1012.44 1012.35 1012.28 1012.23 1012.16 1012.06 1011.89 1011.66 1011.35 1010.98 1010.57 1010.14 1009.74 1009.38 1009.10
1015.22 1015.11 1014.96 1014.77 1014.56 1014.35 1014.16 1014.00 1013.89 1013.82 1013.79 1013.79 1013.80 1013.79 1013.76 1013.67 1013.54 1013.35 1013.12 1012.87 1012.61 1012.37 1012.15 1011.98 1011.84 1011.73 1011.63 1011.51 1011.36 1011.16 1010.89 1010.56 1010.18 1009.76 1009.34 1008.94 1008.61 1008.35
1014.99 1014.88 1014.72 1014.54 1014.34 1014.15 1013.97 1013.83 1013.74 1013.69 1013.67 1013.68 1013.69 1013.68 1013.63 1013.53 1013.37 1013.16 1012.90 1012.61 1012.31 1012.03 1011.77 1011.54 1011.35 1011.18 1011.02 1010.86 1010.67 1010.43 1010.14 1009.80 1009.41 1009.00 1008.60 1008.23 1007.92 1007.70
Thickness
5637 5636 5637 5638 5639 5640 5641 5640 5637 5636 5638 5643 5643 5645 5646 5645 5644 5644 5645 5645 5645 5645 5645 5646 5645 5645 5644 5644 5643 5642 5641 5640 5639 5637 5636 5634 5633 5630
5631 5631 5631 5632 5633 5634 5635 5636 5636 5634 5633 5637 5638 5639 5639 5639 5638 5639 5639 5639 5639 5639 5639 5639 5638 5638 5637 5637 5636 5635 5634 5633 5632 5630 5629 5627 5626 5624
5625 5625 5625 5626 5627 5628 5629 5630 5631 5631 5628 5630 5632 5632 5632 5633 5632 5633 5633 5634 5633 5633 5633 5632 5632 5631 5631 5630 5629 5628 5627 5626 5625 5623 5622 5621 5619 5617
5619 5619 5619 5620 5621 5622 5622 5623 5624 5625 5624 5623 5624 5624 5625 5627 5627 5627 5628 5629 5628 5627 5627 5626 5625 5625 5624 5623 5623 5622 5620 5619 5618 5617 5616 5615 5613 5612
5612 5612 5612 5613 5614 5615 5616 5616 5617 5619 5619 5618 5617 5617 5619 5620 5620 5621 5622 5622 5623 5621 5620 5620 5619 5618 5618 5618 5617 5616 5615 5613 5612 5611 5610 5608 5607 5606
5606 5605 5606 5606 5607 5608 5609 5610 5611 5611 5612 5612 5611 5612 5612 5613 5614 5614 5614 5615 5616 5617 5615 5614 5613 5612 5612 5612 5611 5611 5609 5608 5607 5606 5604 5603 5602 5601
5599 5599 5599 5600 5601 5601 5603 5604 5605 5605 5606 5606 5605 5606 5607 5607 5607 5609 5609 5609 5610 5611 5609 5608 5607 5606 5606 5606 5606 5606 5605 5603 5602 5601 5600 5599 5598 5597
5593 5593 5594 5595 5595 5596 5597 5597 5598 5599 5600 5600 5601 5601 5602 5603 5603 5604 5604 5604 5603 5606 5605 5603 5604 5603 5603 5603 5602 5602 5601 5600 5598 5597 5596 5595 5594 5593
5587 5587 5589 5590 5591 5592 5592 5592 5593 5594 5595 5595 5596 5598 5598 5599 5599 5599 5599 5600 5601 5602 5600 5599 5600 5599 5600 5600 5600 5599 5598 5597 5595 5594 5593 5592 5591 5590
5581 5582 5582 5583 5584 5585 5587 5588 5589 5589 5591 5592 5593 5594 5594 5594 5594 5595 5595 5596 5597 5598 5598 5595 5596 5597 5598 5597 5597 5596 5595 5594 5593 5592 5591 5590 5589 5588
5577 5576 5577 5577 5576 5578 5580 5582 5583 5584 5585 5586 5587 5588 5589 5589 5589 5589 5590 5590 5589 5592 5595 5593 5593 5594 5594 5594 5594 5593 5593 5592 5591 5591 5590 5589 5588 5586
5572 5572 5570 5571 5571 5572 5574 5576 5577 5578 5580 5581 5581 5582 5583 5584 5584 5585 5586 5586 5587 5588 5591 5591 5591 5591 5589 5592 5592 5591 5590 5590 5590 5589 5588 5588 5586 5583
5568 5568 5566 5566 5567 5568 5569 5570 5571 5572 5575 5576 5577 5578 5579 5580 5581 5583 5584 5584 5584 5585 5589 5589 5588 5588 5587 5588 5590 5590 5590 5589 5589 5589 5588 5588 5586 5583
5564 5564 5563 5563 5564 5565 5566 5567 5568 5569 5571 5572 5574 5575 5576 5578 5579 5581 5582 5583 5584 5585 5587 5587 5586 5585 5585 5584 5586 5589 5590 5590 5590 5590 5590 5590 5587 5585
5560 5559 5559 5560 5562 5564 5565 5566 5566 5568 5569 5570 5571 5573 5575 5577 5578 5579 5581 5582 5583 5585 5586 5587 5586 5586 5585 5584 5585 5587 5587 5589 5590 5590 5590 5589 5588 5587
5557 5558 5558 5560 5561 5562 5564 5566 5567 5569 5570 5570 5572 5573 5575 5576 5576 5578 5578 5580 5580 5582 5585 5586 5587 5586 5584 5585 5585 5585 5586 5586 5588 5589 5589 5589 5589 5589
5554 5557 5560 5562 5564 5565 5567 5569 5570 5570 5570 5571 5572 5573 5574 5575 5576 5578 5579 5580 5580 5580 5582 5585 5587 5587 5586 5585 5583 5584 5585 5586 5587 5587 5587 5586 5588 5588
5554 5558 5561 5563 5565 5567 5568 5569 5570 5571 5572 5572 5572 5573 5574 5575 5576 5578 5579 5579 5579 5581 5582 5584 5585 5583 5583 5584 5585 5584 5584 5584 5585 5586 5586 5584 5585 5587
5556 5560 5562 5564 5566 5568 5570 5571 5572 5573 5574 5574 5573 5574 5575 5575 5576 5576 5578 5578 5579 5581 5582 5583 5583 5581 5578 5579 5584 5586 5583 5583 5583 5583 5583 5583 5582 5584
5561 5563 5565 5566 5568 5570 5571 5572 5573 5574 5574 5574 5575 5575 5576 5576 5576 5576 5577 5577 5578 5579 5580 5581 5581 5581 5580 5580 5581 5584 5584 5582 5581 5581 5581 5582 5583 5583
5567 5568 5569 5571 5572 5573 5573 5574 5574 5574 5574 5575 5575 5575 5575 5575 5575 5576 5576 5576 5577 5577 5578 5579 5582 5584 5584 5582 5580 5581 5583 5584 5583 5580 5579 5578 5578 5577
5571 5572 5574 5575 5575 5575 5576 5576 5576 5576 5575 5575 5575 5575 5575 5575 5575 5575 5575 5576 5576 5577 5579 5580 5582 5582 5580 5577 5577 5578 5580 5582 5582 5581 5579 5577 5573 5571
5576 5576 5576 5577 5577 5577 5577 5577 5577 5577 5577 5576 5576 5576 5576 5575 5575 5575 5575 5576 5577 5577 5577 5577 5578 5578 5577 5577 5576 5576 5577 5577 5577 5575 5576 5576 5574 5573